Weather History for KCUL - February, 2014

Change the Weather History Date:

Tuesday, February 4, 2014

  Actual Average (KEVV) Record (KEVV)
Temperature  
Mean Temperature 30 °F 34 °F  
Max Temperature 32 °F 43 °F 77 °F (1962)
Min Temperature 27 °F 25 °F -8 °F (1966)
Degree Days  
Heating Degree Days 36 31  
Month to date heating degree days 125  
Since 1 July heating degree days 2904  
Cooling Degree Days 0 0  
Month to date cooling degree days 0  
Year to date cooling degree days 0  
Moisture  
Dew Point 28 °F    
Average Humidity 91    
Maximum Humidity 100    
Minimum Humidity 78    
Precipitation  
Precipitation 0.18 in 0.13 in 1.14 in (1921)
Month to date precipitation 0.49  
Year to date precipitation 3.59  
Snow  
Snow 0.00 in 0.20 in 1.80 in (2014)
Month to date snowfall 0.6  
Since 1 July snowfall 7.5  
Snow Depth -    
Sea Level Pressure  
Sea Level Pressure 30.12 in    
Wind  
Wind Speed 9 mph (NNE)    
Max Wind Speed 21 mph    
Max Gust Speed 22 mph    
Visibility 6 miles    
Events Rain , Snow    
T = Trace of Precipitation, MM = Missing Value Source: NWS Daily Summary

Daily Weather History Graph

Daily Weather History Graph

Search for Another Location

Airport or City:

Trip Planner

Search our weather history database for the weather conditions in past years. The results will help you decide how hot, cold, wet, or windy it might be!

Date:

Astronomy

Feb. 04, 2014 Rise Set
Actual Time 6:54 AM CST 5:18 PM CST
Civil Twilight 6:26 AM CST 5:46 PM CST
Nautical Twilight 5:55 AM CST 6:17 PM CST
Astronomical Twilight 5:24 AM CST 6:48 PM CST
Moon 9:37 AM CST (2/4) 11:06 PM CST (2/4)
Length of Visible Light 11h 19m
Length of Day
10h 24m
Waxing Crescent, 29% of the Moon is Illuminated
Feb 4
Waxing Crescent
Feb 6
First Quarter
Feb 14
Full
Feb 22
Last Quarter
Mar 1
New

Hourly Weather History & Observations

Time (CST) Temp. Windchill Dew Point Humidity Pressure Visibility Wind Dir Wind Speed Gust Speed Precip Events Conditions
12:15 AM 27.0 °F 21.6 °F 23.9 °F 88% 30.31 in 10.0 mi North 4.6 mph - N/A   Clear
12:35 AM 27.0 °F 21.6 °F 23.9 °F 88% 30.31 in 10.0 mi NNE 4.6 mph - N/A   Clear
12:55 AM 27.1 °F 20.7 °F 23.9 °F 88% 30.30 in 10.0 mi NNE 5.8 mph - N/A   Clear
1:15 AM 27.5 °F 21.1 °F 24.4 °F 88% 30.31 in 10.0 mi North 5.8 mph - N/A   Clear
1:35 AM 27.5 °F 20.2 °F 24.6 °F 89% 30.31 in 10.0 mi North 6.9 mph - N/A   Clear
1:55 AM 27.3 °F 20.9 °F 24.8 °F 90% 30.32 in 10.0 mi North 5.8 mph - N/A   Clear
2:15 AM 27.5 °F 19.3 °F 24.8 °F 90% 30.29 in 7.0 mi NNE 8.1 mph - N/A   Clear
2:35 AM 27.9 °F 20.6 °F 25.5 °F 91% 30.28 in 7.0 mi NE 6.9 mph - N/A   Clear
2:55 AM 28.2 °F 23.1 °F 25.5 °F 90% 30.27 in 7.0 mi NE 4.6 mph - N/A   Clear
3:15 AM 28.8 °F 21.7 °F 25.5 °F 88% 30.27 in 7.0 mi ENE 6.9 mph - N/A   Clear
3:35 AM 28.8 °F 21.7 °F 25.7 °F 88% 30.26 in 10.0 mi ENE 6.9 mph - N/A   Clear
3:55 AM 28.9 °F 25.2 °F 25.7 °F 88% 30.29 in 10.0 mi NE 3.5 mph - N/A   Clear
4:15 AM 29.1 °F 25.4 °F 25.7 °F 87% 30.30 in 7.0 mi NNE 3.5 mph - N/A   Clear
4:35 AM 28.8 °F 25.0 °F 26.2 °F 90% 30.32 in 7.0 mi North 3.5 mph - N/A   Clear
4:55 AM 29.1 °F 24.1 °F 26.6 °F 90% 30.31 in 7.0 mi NNE 4.6 mph - N/A   Clear
5:15 AM 29.3 °F 21.5 °F 26.8 °F 90% 30.29 in 7.0 mi NNE 8.1 mph - N/A   Clear
5:35 AM 29.3 °F 20.2 °F 26.6 °F 90% 30.28 in 7.0 mi NNE 10.4 mph - N/A   Clear
5:55 AM 29.3 °F 22.3 °F 26.6 °F 90% 30.30 in 7.0 mi NNE 6.9 mph - N/A   Clear
6:15 AM 29.5 °F 23.4 °F 26.4 °F 88% 30.30 in 7.0 mi NNE 5.8 mph - N/A   Clear
6:35 AM 29.7 °F 22.0 °F 27.0 °F 90% 30.28 in 7.0 mi NNE 8.1 mph - N/A   Clear
6:55 AM 29.7 °F 21.3 °F 27.1 °F 90% 30.28 in 7.0 mi NE 9.2 mph - N/A   Clear
7:15 AM 29.8 °F 20.9 °F 26.6 °F 88% 30.28 in 7.0 mi NE 10.4 mph - N/A   Clear
7:35 AM 30.0 °F 20.0 °F 26.4 °F 86% 30.25 in 7.0 mi NE 12.7 mph - N/A   Clear
7:55 AM 30.2 °F 20.2 °F 26.6 °F 86% 30.25 in 7.0 mi NE 12.7 mph - N/A   Clear
8:15 AM 30.6 °F 23.1 °F 26.8 °F 86% 30.26 in 7.0 mi NE 8.1 mph - N/A   Clear
8:35 AM 30.9 °F 25.2 °F 27.0 °F 85% 30.28 in 7.0 mi NE 5.8 mph - N/A   Clear
8:55 AM 31.1 °F 22.4 °F 27.5 °F 87% 30.26 in 7.0 mi NE 10.4 mph - N/A   Clear
9:15 AM 31.6 °F 25.1 °F 27.5 °F 85% 30.27 in 7.0 mi ENE 6.9 mph - N/A   Clear
9:35 AM 32.0 °F 23.0 °F 27.7 °F 84% 30.23 in 7.0 mi ENE 11.5 mph - N/A   Clear
9:55 AM 32.5 °F 23.2 °F 27.7 °F 82% 30.22 in 7.0 mi ENE 12.7 mph - N/A   Clear
10:15 AM 32.5 °F 24.2 °F 27.5 °F 82% 30.23 in 7.0 mi ENE 10.4 mph - N/A   Clear
10:35 AM 32.9 °F 25.3 °F 27.3 °F 80% 30.24 in 7.0 mi NE 9.2 mph - N/A   Scattered Clouds
10:55 AM 32.9 °F 24.7 °F 27.5 °F 81% 30.22 in 7.0 mi NE 10.4 mph - N/A   Mostly Cloudy
11:15 AM 32.9 °F 23.7 °F 26.8 °F 78% 30.20 in 7.0 mi NE 12.7 mph - N/A   Mostly Cloudy
11:35 AM 32.9 °F 25.3 °F 27.1 °F 79% 30.21 in 7.0 mi NNE 9.2 mph - N/A   Overcast
11:55 AM 32.9 °F 25.3 °F 26.6 °F 78% 30.24 in 7.0 mi NE 9.2 mph - N/A   Overcast
12:15 PM 32.9 °F 25.3 °F 27.0 °F 79% 30.20 in 10.0 mi NE 9.2 mph - N/A   Overcast
12:35 PM 32.9 °F 26.7 °F 27.0 °F 79% 30.20 in 10.0 mi NE 6.9 mph - N/A   Overcast
12:55 PM 32.9 °F 25.9 °F 27.3 °F 80% 30.17 in 7.0 mi NNE 8.1 mph - N/A   Overcast
1:15 PM 32.9 °F 24.1 °F 27.3 °F 80% 30.12 in 10.0 mi NE 11.5 mph - N/A   Overcast
1:35 PM 32.0 °F 21.2 °F 28.0 °F 85% 30.07 in 1.2 mi NNE 16.1 mph - N/A Snow Light Snow
1:55 PM 30.6 °F 18.2 °F 29.3 °F 95% 30.07 in 0.8 mi NE 19.6 mph - N/A Snow Light Snow
2:15 PM 30.6 °F 19.4 °F 30.0 °F 98% 30.04 in 1.2 mi NE 16.1 mph - N/A Snow Light Snow
2:35 PM 30.6 °F 18.6 °F 29.7 °F 96% 30.02 in 1.2 mi NE 18.4 mph - 0.01 in Snow Light Snow
2:55 PM 30.4 °F 19.1 °F 29.5 °F 96% 30.02 in 1.8 mi NNE 16.1 mph - 0.01 in Snow Light Snow
3:15 PM 30.6 °F 19.4 °F 29.5 °F 96% 30.03 in 2.0 mi NNE 16.1 mph - 0.03 in Snow Light Snow
3:35 PM 30.4 °F 20.0 °F 29.5 °F 96% 30.03 in 2.0 mi NNE 13.8 mph - 0.05 in Snow Light Snow
3:55 PM 30.2 °F 20.2 °F 29.5 °F 97% 30.01 in 1.5 mi NNE 12.7 mph - 0.06 in Snow Light Snow
4:15 PM 30.0 °F 18.3 °F 29.5 °F 98% 29.99 in 3.0 mi NNE 17.3 mph - 0.02 in Rain Light Freezing Rain
4:35 PM 30.7 °F 18.8 °F 30.0 °F 97% 29.97 in 3.0 mi NNE 18.4 mph - 0.04 in Rain Light Freezing Rain
4:55 PM 30.9 °F 20.7 °F 30.2 °F 97% 29.99 in 3.0 mi NNE 13.8 mph - 0.06 in Rain Light Freezing Rain
5:15 PM 30.2 °F 18.5 °F 29.3 °F 96% 29.97 in 2.5 mi NNE 17.3 mph 21.9 mph 0.02 in Rain Light Freezing Rain
5:35 PM 30.0 °F 18.7 °F 29.1 °F 96% 29.97 in 4.0 mi NNE 16.1 mph 20.7 mph 0.03 in   Overcast
5:55 PM 30.2 °F 18.5 °F 29.3 °F 96% 29.96 in 5.0 mi NNE 17.3 mph 21.9 mph 0.05 in Rain Light Freezing Rain
6:15 PM 30.6 °F 19.4 °F 29.8 °F 97% 29.94 in 5.0 mi NNE 16.1 mph 19.6 mph N/A Rain Light Freezing Rain
6:35 PM 30.9 °F 21.7 °F 29.8 °F 96% 29.96 in 7.0 mi NE 11.5 mph - N/A   Light Freezing Rain
6:55 PM 31.5 °F 20.1 °F 30.2 °F 95% 29.95 in 7.0 mi ENE 17.3 mph - N/A   Light Freezing Rain
7:15 PM 31.1 °F 20.1 °F 30.2 °F 96% 29.92 in 7.0 mi ENE 16.1 mph - N/A Rain Light Freezing Rain
7:35 PM 31.6 °F 19.3 °F 30.7 °F 96% 29.88 in 7.0 mi ENE 20.7 mph - N/A Rain Light Freezing Rain
7:55 PM 32.0 °F 23.0 °F 30.9 °F 96% 29.92 in 7.0 mi NE 11.5 mph - N/A   Light Drizzle
8:15 PM 32.0 °F 22.5 °F 31.1 °F 96% 29.88 in 10.0 mi NE 12.7 mph - N/A   Light Drizzle
8:35 PM 32.0 °F 23.6 °F 31.1 °F 96% 29.90 in 10.0 mi NNE 10.4 mph - N/A   Overcast
8:55 PM 32.0 °F 24.2 °F 31.1 °F 96% 29.89 in 10.0 mi NNE 9.2 mph - N/A   Overcast
9:15 PM 32.0 °F 24.8 °F 31.5 °F 98% 29.88 in 10.0 mi North 8.1 mph - N/A   Overcast
9:35 PM 32.2 °F 25.0 °F 31.8 °F 99% 29.86 in 3.0 mi NNE 8.1 mph - N/A   Overcast
9:55 PM 32.2 °F 24.4 °F 32.0 °F 99% 29.85 in 3.0 mi NNE 9.2 mph - N/A   Overcast
10:15 PM 32.0 °F 26.4 °F 32.0 °F 100% 29.85 in 1.8 mi North 5.8 mph - N/A   Overcast
10:35 PM 32.0 °F 27.5 °F 32.0 °F 100% 29.85 in 2.0 mi North 4.6 mph - N/A   Overcast
10:55 PM 32.0 °F 26.4 °F 32.0 °F 100% 29.87 in 2.5 mi North 5.8 mph - N/A   Drizzle
11:15 PM 32.0 °F 26.4 °F 32.0 °F 100% 29.86 in 2.0 mi North 5.8 mph - N/A   Light Drizzle
11:35 PM 32.0 °F 26.4 °F 32.0 °F 100% 29.85 in 2.5 mi NNW 5.8 mph - N/A   Light Drizzle
11:55 PM 32.0 °F 26.4 °F 32.0 °F 100% 29.85 in 2.0 mi NW 5.8 mph - N/A   Overcast